Home > Weather > Malmö > Past weeks

Flag for Sweden Past Weather in Malmö, Sweden — Yesterday and Last 2 Weeks

Now
70 °F

Sunny.


Feels Like: 70 °F
Forecast: 59 / 65 °F
Wind: 14 mph from Southeast

Location: Malmo / Sturup

Current Time: Aug 28, 2016 at 2:27:53 PM

Latest Report: Aug 28, 2016 at 1:50 PM


Visibility: 10 mi

Pressure: 29.92 "Hg

Humidity: 60%

Dew Point: 55 °F

Location of MalmöLocation

Past Weather in Malmö — Graph

°F

Malmö Temperature Yesterday

Maximum temperature yesterday: 72 °F (at 2:50 PM)
Minimum temperature yesterday: 50 °F (at 11:20 PM)
Average temperature yesterday: 63 °F

High & Low Weather Summary for the Past Weeks

 TemperatureHumidityPressure
High82 °F (Aug 26, 4:20 PM)100% (Aug 15, 5:20 AM)30.33 "Hg (Aug 15, 5:20 AM)
Low45 °F (Aug 17, 2:50 AM)41% (Aug 27, 2:50 PM)29.77 "Hg (Aug 18, 9:20 AM)
Average62 °F82%30.04 "Hg
* Reported Aug 13 1:20 PM — Aug 28 1:20 PM, Malmö, Weather by CustomWeather, © 2016

Note: Actual official high and low records may vary slightly from our data, if they occured in-between our weather recording intervals... More about our weather records

Advertising

Malmö Weather History for the Previous 24 Hours

Scroll right to see more
 ConditionsComfort  
Time TempWeatherWind HumidityBarometerVisibility
1:20 PM
Sun, Aug 28
68 °FSunny.16 mph64%29.92 "Hg10 mi
12:50 PM66 °FSunny.16 mph68%29.92 "Hg10 mi
12:20 PM63 °FSunny.15 mph73%29.92 "Hg10 mi
11:50 AM61 °FPassing clouds.9 mph88%29.92 "HgN/A
11:20 AM61 °FBroken clouds.16 mph83%29.92 "HgN/A
10:50 AM59 °FRain showers. Broken clouds.21 mph88%29.92 "Hg6 mi
10:20 AM57 °FRain showers. Broken clouds.15 mph88%29.95 "Hg5 mi
9:50 AM57 °FLight rain. Broken clouds.15 mph94%29.95 "HgN/A
9:20 AM57 °FRain. Partly sunny.14 mph94%30.01 "Hg6 mi
8:50 AM55 °FThunderstorms. Mostly cloudy.10 mph100%30.04 "Hg5 mi
8:20 AM55 °FThunderstorms. Partly sunny.6 mph100%30.07 "Hg4 mi
7:50 AM57 °FRain. Broken clouds.7 mph94%30.07 "Hg5 mi
7:20 AM59 °FThunderstorms. More clouds than sun.7 mph82%30.09 "Hg3 mi
6:50 AM61 °FThunderstorms. Partly cloudy.20 mph72%30.09 "HgN/A
6:20 AM61 °FClear.10 mph72%30.01 "Hg10 mi
5:50 AM59 °FClear.12 mph77%30.04 "Hg10 mi
5:20 AM59 °FClear.10 mph77%30.04 "Hg10 mi
4:50 AM59 °FClear.6 mph77%30.07 "Hg10 mi
4:20 AM57 °FClear.7 mph77%30.07 "Hg10 mi
3:50 AM55 °FClear.8 mph82%30.07 "Hg10 mi
3:20 AM55 °FClear.7 mph77%30.07 "Hg10 mi
2:50 AM54 °FClear.7 mph82%30.09 "Hg10 mi
2:20 AM52 °FClear.5 mph88%30.09 "Hg10 mi
1:50 AM52 °FClear.3 mph82%30.09 "Hg10 mi
1:20 AM52 °FClear.3 mph88%30.09 "Hg10 mi
12:50 AM50 °FClear.5 mph88%30.12 "Hg10 mi
12:20 AM50 °FClear.3 mph94%30.12 "Hg10 mi
11:50 PM
Sat, Aug 27
50 °FClear.3 mph94%30.12 "Hg10 mi
11:20 PM50 °FClear.2 mph94%30.12 "Hg10 mi
10:50 PM52 °FClear.3 mph88%30.15 "Hg10 mi
10:20 PM52 °FClear.2 mph88%30.15 "Hg10 mi
9:50 PM54 °FClear.3 mph88%30.15 "Hg10 mi
9:20 PM54 °FClear.1 mph88%30.15 "Hg10 mi
8:50 PM57 °FSunny.No wind72%30.15 "Hg10 mi
8:20 PM61 °FSunny.No wind68%30.15 "Hg10 mi
7:50 PM64 °FSunny.6 mph56%30.12 "Hg10 mi
7:20 PM66 °FSunny.7 mph56%30.12 "Hg10 mi
6:50 PM68 °FSunny.10 mph49%30.15 "Hg10 mi
6:20 PM70 °FSunny.9 mph46%30.15 "Hg10 mi
5:50 PM70 °FSunny.9 mph50%30.15 "Hg10 mi
5:20 PM70 °FSunny.9 mph50%30.15 "Hg10 mi
4:50 PM72 °FSunny.10 mph47%30.15 "Hg10 mi
4:20 PM72 °FSunny.12 mph47%30.15 "Hg10 mi
3:50 PM72 °FSunny.12 mph44%30.15 "Hg10 mi
3:20 PM72 °FPassing clouds.12 mph41%30.15 "HgN/A
2:50 PM72 °FSunny.12 mph41%30.15 "Hg10 mi
2:20 PM70 °FSunny.12 mph53%30.15 "Hg10 mi
Weather by CustomWeather, © 2016

See weather overviewHow to use our weather pages